EW9030 Weather Reports


time (UTC)temp
C
wind
direction
speed
KPH
gust
KPH
rain 1hr
cm
rain 24hr
cm
rain mn
cm
humidity
%
barometer
mb
20260508033406 7 275 0.0 6.4 0.00 0.00 0.00 48 1021.1
20260508032900 7 275 0.0 6.4 0.00 0.00 0.00 48 1021.0
20260508032354 7 285 0.0 4.8 0.00 0.00 0.00 48 1021.0
20260508031847 7 234 0.0 4.8 0.00 0.00 0.00 47 1021.0
20260508031341 7 234 0.0 4.8 0.00 0.00 0.00 47 1020.8
20260508030835 7 234 0.0 0.0 0.00 0.00 0.00 46 1020.7
20260508030328 7 234 0.0 0.0 0.00 0.00 0.00 46 1020.6
20260508025822 7 234 0.0 0.0 0.00 0.00 0.00 45 1020.5
20260508025318 7 234 0.0 0.0 0.00 0.00 0.00 45 1020.5
20260508024810 7 234 0.0 0.0 0.00 0.00 0.00 45 1020.3
20260508024310 7 234 0.0 4.8 0.00 0.00 0.00 44 1020.3
20260508023811 7 234 0.0 4.8 0.00 0.00 0.00 44 1020.3
20260508023311 8 234 1.6 4.8 0.00 0.00 0.00 44 1020.2
20260508022808 8 234 1.6 4.8 0.00 0.00 0.00 43 1020.2
20260508022541 8 234 0.0 4.8 0.00 0.00 0.00 42 1020.2
20260508021808 8 234 1.6 4.8 0.00 0.00 0.00 41 1020.1
20260508021308 8 234 1.6 4.8 0.00 0.00 0.00 41 1020.1
20260508021039 8 234 1.6 8.0 0.00 0.00 0.00 41 1019.9
20260508020311 8 234 3.2 8.0 0.00 0.00 0.00 40 1019.9
20260508015808 8 229 3.2 8.0 0.00 0.00 0.00 40 1019.8
20260508015309 8 259 3.2 8.0 0.00 0.00 0.00 40 1019.8
20260508014809 9 259 3.2 8.0 0.00 0.00 0.00 39 1019.8
20260508014309 9 267 3.2 9.7 0.00 0.00 0.00 38 1019.7
20260508013808 9 212 3.2 9.7 0.00 0.00 0.00 37 1019.8
20260508013543 10 261 4.8 16.1 0.00 0.00 0.00 37 1019.7
20260508012809 10 245 6.4 19.3 0.00 0.00 0.00 36 1019.7
20260508012309 10 253 4.8 19.3 0.00 0.00 0.00 36 1019.7
20260508011808 10 214 4.8 17.7 0.00 0.00 0.00 36 1019.5
20260508011309 10 267 6.4 19.3 0.00 0.00 0.00 36 1019.4
20260508010808 10 257 11.3 24.1 0.00 0.00 0.00 36 1019.4
20260508010539 10 237 11.3 24.1 0.00 0.00 0.00 35 1019.3
20260508005809 11 273 8.0 16.1 0.00 0.00 0.00 35 1019.5
20260508005309 11 226 8.0 17.7 0.00 0.00 0.00 36 1019.4
20260508004808 10 254 9.7 17.7 0.00 0.00 0.00 36 1019.4
20260508004541 11 238 8.0 16.1 0.00 0.00 0.00 35 1019.4
20260508003809 11 264 8.0 16.1 0.00 0.00 0.00 35 1019.4
20260508003311 11 223 8.0 22.5 0.00 0.00 0.00 34 1019.4
20260508002806 11 232 6.4 22.5 0.00 0.00 0.00 35 1019.3
20260508002307 11 253 6.4 14.5 0.00 0.00 0.00 35 1019.3
20260508001801 11 246 4.8 12.9 0.00 0.00 0.00 35 1019.3
20260508001254 11 241 3.2 9.7 0.00 0.00 0.00 36 1019.3
20260508001019 11 300 3.2 14.5 0.00 0.00 0.00 34 1019.3
20260508000243 11 286 4.8 14.5 0.00 0.00 0.00 33 1019.7
20260507235738 11 206 4.8 11.3 0.00 0.00 0.00 35 1019.4
20260507235510 12 215 4.8 19.3 0.00 0.00 0.00 35 1019.4
20260507234736 12 198 6.4 19.3 0.00 0.00 0.00 34 1019.4
20260507234236 12 209 8.0 19.3 0.00 0.00 0.00 33 1019.4
20260507234007 12 289 9.7 22.5 0.00 0.00 0.00 33 1019.3
20260507233237 12 213 11.3 24.1 0.00 0.00 0.00 32 1019.3
20260507232738 12 227 11.3 25.7 0.00 0.00 0.00 32 1019.4
20260507232236 13 263 9.7 25.7 0.00 0.00 0.00 32 1019.3
20260507231735 13 241 8.0 24.1 0.00 0.00 0.00 32 1019.1
20260507231237 13 202 6.4 16.1 0.00 0.00 0.00 31 1019.1
20260507230736 13 290 6.4 17.7 0.00 0.00 0.00 31 1019.1
20260507230235 13 172 4.8 17.7 0.00 0.00 0.00 31 1019.3
20260507225735 13 223 4.8 17.7 0.00 0.00 0.00 34 1019.3
20260507225234 13 5 8.0 19.3 0.00 0.00 0.00 35 1019.1
20260507224735 13 213 6.4 19.3 0.00 0.00 0.00 32 1019.1
20260507224513 13 273 4.8 12.9 0.00 0.00 0.00 34 1019.3
20260507223736 12 206 4.8 12.9 0.00 0.00 0.00 34 1019.3
20260507223229 12 217 4.8 24.1 0.00 0.03 0.00 35 1019.4
20260507222723 12 320 4.8 24.1 0.00 0.03 0.00 34 1019.4
20260507222218 13 282 4.8 12.9 0.00 0.03 0.00 33 1019.3
20260507221712 13 294 4.8 17.7 0.00 0.03 0.00 35 1019.5
20260507221206 13 202 6.4 17.7 0.00 0.03 0.00 36 1019.4
20260507220659 13 180 8.0 19.3 0.00 0.03 0.00 37 1019.4
20260507220154 13 204 6.4 19.3 0.00 0.05 0.00 35 1019.5
20260507215647 13 271 4.8 19.3 0.00 0.05 0.00 35 1019.7
20260507215142 12 227 4.8 19.3 0.00 0.05 0.00 36 1019.9
20260507214636 12 240 4.8 16.1 0.00 0.05 0.00 38 1019.8
20260507214130 12 232 4.8 16.1 0.00 0.05 0.00 38 1019.8
20260507213857 12 355 6.4 14.5 0.00 0.05 0.00 35 1019.9
20260507213353 12 208 8.0 17.7 0.00 0.08 0.00 33 1019.9
20260507212611 13 271 8.0 17.7 0.00 0.08 0.00 37 1019.9
20260507212114 13 292 6.4 19.3 0.00 0.08 0.00 36 1019.9
20260507211600 12 176 8.0 19.3 0.00 0.10 0.00 37 1020.2
20260507211053 12 227 6.4 17.7 0.00 0.10 0.00 36 1020.2
20260507210547 13 236 4.8 14.5 0.00 0.10 0.00 35 1020.2
20260507210042 13 27 4.8 14.5 0.00 0.10 0.00 36 1020.2
20260507205544 13 5 4.8 14.5 0.00 0.10 0.00 41 1020.2
20260507205036 12 42 4.8 14.5 0.00 0.13 0.00 41 1020.2
20260507204528 12 262 4.8 16.1 0.00 0.13 0.00 41 1020.3
20260507204023 11 281 4.8 17.7 0.00 0.13 0.00 42 1020.3
20260507203517 11 216 3.2 16.1 0.00 0.15 0.00 41 1020.3
20260507203010 11 107 1.6 16.1 0.00 0.15 0.00 42 1020.5
20260507202459 11 194 4.8 16.1 0.00 0.15 0.00 41 1020.5
20260507201954 11 196 8.0 16.1 0.00 0.18 0.00 40 1020.5
20260507201447 11 229 9.7 20.9 0.00 0.20 0.00 41 1020.5
20260507200942 11 241 11.3 20.9 0.00 0.20 0.00 41 1020.6
20260507200436 11 256 8.0 19.3 0.00 0.20 0.00 42 1020.5
20260507195930 11 252 6.4 16.1 0.00 0.20 0.00 40 1020.7
20260507195423 11 181 4.8 17.7 0.00 0.20 0.00 39 1020.7
20260507195148 10 184 4.8 12.9 0.00 0.20 0.00 49 1020.8
20260507194412 10 267 6.4 12.9 0.00 0.20 0.00 43 1020.8
20260507193906 10 248 3.2 9.7 0.00 0.20 0.00 48 1021.0
20260507193400 9 295 1.6 6.4 0.00 0.20 0.00 44 1020.8
20260507192854 8 260 3.2 12.9 0.00 0.20 0.00 44 1021.0
20260507192621 8 217 4.8 12.9 0.00 0.20 0.00 44 1021.1
20260507191848 8 198 4.8 12.9 0.00 0.20 0.00 43 1021.1
20260507191347 8 233 6.4 12.9 0.00 0.20 0.00 46 1021.2
20260507190849 8 187 4.8 9.7 0.00 0.20 0.00 45 1021.2
20260507190348 8 215 6.4 9.7 0.00 0.20 0.00 46 1021.2
20260507185848 8 221 6.4 11.3 0.00 0.20 0.00 47 1021.4
20260507185347 8 213 4.8 11.3 0.00 0.20 0.00 49 1021.4
20260507185120 8 253 3.2 14.5 0.00 0.20 0.00 48 1021.5
20260507184347 7 244 3.2 14.5 0.00 0.20 0.00 50 1021.5
20260507183847 7 277 3.2 11.3 0.00 0.20 0.00 50 1021.6
20260507183348 7 198 4.8 14.5 0.00 0.20 0.00 48 1021.6
20260507182849 7 239 6.4 14.5 0.00 0.20 0.00 50 1021.6
20260507182347 7 232 6.4 14.5 0.00 0.20 0.00 50 1021.6
20260507181850 7 238 4.8 16.1 0.00 0.20 0.00 48 1021.6
20260507181349 7 225 6.4 16.1 0.00 0.20 0.00 50 1021.5
20260507180850 7 238 6.4 16.1 0.00 0.23 0.00 48 1021.6
20260507180350 7 231 4.8 16.1 0.00 0.23 0.00 48 1021.6
20260507175844 7 227 4.8 12.9 0.00 0.23 0.00 48 1021.5
20260507175345 7 237 4.8 12.9 0.00 0.23 0.00 49 1021.5
20260507174844 8 229 3.2 11.3 0.00 0.23 0.00 49 1021.5
20260507174343 8 302 4.8 11.3 0.00 0.23 0.00 48 1021.5
20260507173843 8 250 4.8 11.3 0.00 0.23 0.00 47 1021.6
20260507173343 8 229 4.8 14.5 0.00 0.23 0.00 46 1021.6
20260507172844 8 269 4.8 14.5 0.00 0.23 0.00 46 1021.6
20260507172344 9 208 3.2 11.3 0.00 0.23 0.00 46 1021.6
20260507171844 9 9 3.2 9.7 0.00 0.23 0.00 47 1021.6
20260507171339 9 183 4.8 16.1 0.00 0.23 0.00 47 1021.9
20260507170839 9 198 4.8 16.1 0.00 0.23 0.00 50 1021.8
20260507170339 9 263 6.4 16.1 0.00 0.23 0.00 50 1021.8
20260507165840 9 265 6.4 16.1 0.00 0.23 0.00 49 1021.9
20260507165339 8 225 6.4 16.1 0.00 0.23 0.00 47 1021.9
20260507165111 8 333 6.4 14.5 0.00 0.23 0.00 54 1022.0
20260507164340 8 102 4.8 14.5 0.00 0.23 0.00 51 1022.0
20260507163840 8 292 4.8 17.7 0.00 0.23 0.00 52 1022.2
20260507163340 8 5 4.8 17.7 0.00 0.23 0.00 51 1022.0
20260507162841 7 236 4.8 16.1 0.00 0.23 0.00 53 1022.2
20260507162340 7 269 6.4 22.5 0.00 0.23 0.00 53 1022.2
20260507161839 7 265 6.4 22.5 0.00 0.23 0.00 55 1022.2
20260507161340 7 239 4.8 17.7 0.00 0.23 0.00 53 1022.3
20260507160840 6 183 6.4 17.7 0.00 0.23 0.00 54 1022.3
20260507160340 6 233 6.4 14.5 0.00 0.23 0.00 56 1022.3
20260507155841 6 246 6.4 16.1 0.00 0.23 0.00 54 1022.2
20260507155611 5 252 8.0 16.1 0.00 0.23 0.00 56 1022.3
20260507154839 5 222 8.0 16.1 0.00 0.23 0.00 55 1022.3
20260507154341 5 218 8.0 16.1 0.00 0.23 0.00 53 1022.3
20260507153841 5 212 8.0 19.3 0.00 0.23 0.00 55 1022.3
20260507153342 4 227 8.0 19.3 0.00 0.23 0.00 55 1022.4
20260507152839 4 264 8.0 19.3 0.00 0.23 0.00 56 1022.3
20260507152340 4 237 8.0 19.3 0.00 0.23 0.00 55 1022.3
20260507151834 3 225 8.0 16.1 0.00 0.23 0.00 56 1022.3
20260507151328 3 248 8.0 16.1 0.00 0.23 0.00 54 1022.4
20260507150821 3 196 9.7 17.7 0.00 0.23 0.00 56 1022.4
20260507150316 3 202 9.7 17.7 0.00 0.23 0.00 57 1022.6
20260507145808 2 253 9.7 17.7 0.00 0.23 0.00 58 1022.4
20260507145309 2 219 9.7 16.1 0.00 0.23 0.00 56 1022.4
20260507144755 2 215 9.7 16.1 0.00 0.23 0.00 59 1022.6
20260507144249 2 228 11.3 17.7 0.00 0.23 0.00 58 1022.6
20260507143743 1 252 9.7 17.7 0.00 0.23 0.00 58 1022.6
20260507143507 1 265 8.0 16.1 0.00 0.23 0.00 59 1022.6
20260507142731 1 215 8.0 14.5 0.00 0.23 0.00 60 1022.6
20260507142455 1 244 8.0 17.7 0.00 0.23 0.00 62 1022.6
20260507141718 0 236 8.0 17.7 0.00 0.23 0.00 63 1022.6
20260507141444 0 225 9.7 17.7 0.00 0.23 0.00 63 1022.6
20260507140706 0 255 9.7 17.7 0.00 0.23 0.00 65 1022.6
20260507140200 0 233 9.7 14.5 0.00 0.23 0.00 67 1022.4
20260507135655 0 236 8.0 17.7 0.00 0.23 0.00 69 1022.6
20260507135149 -1 253 4.8 16.1 0.00 0.23 0.00 74 1022.4
20260507134643 -2 238 3.2 8.0 0.00 0.23 0.00 78 1022.4
20260507134137 -2 242 3.2 8.0 0.00 0.23 0.00 83 1022.4
20260507133630 -3 241 3.2 8.0 0.00 0.23 0.00 86 1022.4
20260507133125 -4 227 1.6 6.4 0.00 0.23 0.00 88 1022.4
20260507132619 -4 227 1.6 6.4 0.00 0.23 0.00 89 1022.4
20260507132112 -5 243 3.2 6.4 0.00 0.23 0.00 89 1022.3
20260507131606 -5 219 3.2 6.4 0.00 0.23 0.00 91 1022.3
20260507131331 -6 226 1.6 6.4 0.00 0.23 0.00 91 1022.3
20260507130556 -6 355 0.0 0.0 0.00 0.23 0.00 92 1022.3
20260507130050 -6 355 0.0 0.0 0.00 0.23 0.00 92 1022.4
20260507125817 -6 355 0.0 0.0 0.00 0.23 0.00 92 1022.3
20260507125039 -6 355 0.0 0.0 0.00 0.23 0.00 92 1022.2
20260507124535 -7 355 0.0 0.0 0.00 0.23 0.00 92 1022.2
20260507124255 -7 355 0.0 0.0 0.00 0.23 0.00 91 1022.2
20260507123518 -8 355 0.0 1.6 0.00 0.23 0.00 91 1022.0
20260507123014 -8 355 0.0 1.6 0.00 0.23 0.00 90 1021.9
20260507122506 -8 355 0.0 3.2 0.00 0.23 0.00 89 1021.9
20260507122002 -8 355 1.6 3.2 0.00 0.23 0.00 88 1021.8
20260507121456 -8 355 1.6 4.8 0.00 0.23 0.00 88 1021.8
20260507120949 -8 355 1.6 4.8 0.00 0.23 0.00 88 1021.6
20260507120443 -8 355 1.6 4.8 0.00 0.23 0.00 88 1021.6
20260507115936 -8 355 1.6 4.8 0.00 0.23 0.00 88 1021.5
20260507115430 -8 355 0.0 0.0 0.00 0.23 0.00 88 1021.5
20260507114931 -8 355 1.6 4.8 0.00 0.23 0.00 88 1021.6
20260507114420 -8 355 1.6 4.8 0.00 0.23 0.00 88 1021.6
20260507113913 -8 355 0.0 3.2 0.00 0.23 0.00 88 1021.6
20260507113407 -8 355 1.6 4.8 0.00 0.23 0.00 88 1021.5
20260507112902 -8 355 3.2 4.8 0.00 0.23 0.00 88 1021.5
20260507112355 -8 355 1.6 4.8 0.00 0.23 0.00 88 1021.5
20260507111849 -8 355 1.6 6.4 0.00 0.23 0.00 88 1021.6
20260507111342 -8 355 1.6 6.4 0.00 0.23 0.00 88 1021.6
20260507110836 -8 355 0.0 0.0 0.00 0.23 0.00 88 1021.6
20260507110330 -8 355 0.0 0.0 0.00 0.23 0.00 87 1021.6
20260507105825 -8 355 0.0 0.0 0.00 0.23 0.00 87 1021.6
20260507105320 -8 355 0.0 0.0 0.00 0.23 0.00 87 1021.6
20260507104813 -8 355 0.0 0.0 0.00 0.23 0.00 87 1021.6
20260507104308 -7 355 0.0 0.0 0.00 0.23 0.00 87 1021.5
20260507104034 -7 355 0.0 0.0 0.00 0.23 0.00 87 1021.4
20260507103255 -7 355 0.0 0.0 0.00 0.23 0.00 87 1021.4
20260507102753 -7 355 0.0 0.0 0.00 0.23 0.00 87 1021.4
20260507102250 -7 355 0.0 0.0 0.00 0.23 0.00 87 1021.4
20260507101750 -7 355 0.0 0.0 0.00 0.23 0.00 87 1021.4
20260507101251 -7 355 0.0 0.0 0.00 0.23 0.00 87 1021.4
20260507100748 -7 355 0.0 0.0 0.00 0.23 0.00 87 1021.4
20260507100248 -7 355 0.0 0.0 0.00 0.23 0.00 86 1021.6
20260507095749 -7 355 0.0 0.0 0.00 0.23 0.00 86 1021.6
20260507095248 -7 355 0.0 0.0 0.00 0.23 0.00 85 1021.8
20260507094749 -7 355 0.0 0.0 0.00 0.23 0.00 85 1021.8
20260507093748 -7 355 0.0 0.0 0.00 0.23 0.00 85 1021.6
20260507093248 -7 355 0.0 0.0 0.00 0.23 0.00 85 1021.6
20260507092744 -6 355 0.0 0.0 0.00 0.23 0.00 85 1021.6
20260507092247 -6 355 0.0 0.0 0.00 0.23 0.00 85 1021.8
20260507091744 -6 355 0.0 0.0 0.00 0.23 0.00 85 1021.9
20260507091245 -6 355 0.0 0.0 0.00 0.23 0.00 85 1021.8
20260507091014 -6 355 0.0 0.0 0.00 0.23 0.00 85 1021.8
20260507090240 -6 355 0.0 0.0 0.00 0.23 0.00 85 1021.9
20260507090016 -6 355 0.0 0.0 0.00 0.23 0.00 85 1021.9
20260507085240 -6 355 0.0 0.0 0.00 0.23 0.00 85 1022.0
20260507084741 -6 355 0.0 0.0 0.00 0.23 0.00 85 1022.0
20260507084240 -6 355 0.0 0.0 0.00 0.23 0.00 86 1022.0
20260507083742 -6 355 0.0 0.0 0.00 0.23 0.00 86 1022.0
20260507083241 -6 355 0.0 0.0 0.00 0.23 0.00 86 1021.9
20260507082742 -6 355 0.0 0.0 0.00 0.23 0.00 86 1021.9
20260507082240 -6 355 0.0 0.0 0.00 0.23 0.00 86 1021.9
20260507081741 -6 355 0.0 0.0 0.00 0.23 0.00 86 1021.9
20260507081240 -6 355 0.0 0.0 0.00 0.23 0.00 86 1021.9
20260507080743 -6 355 0.0 0.0 0.00 0.23 0.00 87 1021.9
20260507080516 -6 355 0.0 0.0 0.00 0.23 0.00 87 1021.9
20260507075740 -6 355 0.0 3.2 0.00 0.23 0.00 87 1021.9
20260507075240 -6 355 1.6 4.8 0.00 0.23 0.00 88 1021.9
20260507074742 -6 355 1.6 4.8 0.00 0.23 0.00 88 1022.0
20260507074239 -6 231 0.0 0.0 0.00 0.23 0.00 88 1021.9
20260507073732 -6 231 0.0 0.0 0.00 0.23 0.00 88 1021.9
20260507073227 -6 231 0.0 0.0 0.00 0.23 0.00 88 1022.0
20260507072721 -6 231 0.0 3.2 0.00 0.23 0.00 88 1021.9
20260507072216 -6 231 0.0 3.2 0.00 0.23 0.00 88 1021.9
20260507071708 -6 231 0.0 3.2 0.00 0.23 0.00 89 1021.8
20260507071203 -6 231 0.0 4.8 0.00 0.23 0.00 89 1021.6
20260507070656 -6 231 0.0 4.8 0.00 0.23 0.00 89 1021.6
20260507070151 -6 251 0.0 0.0 0.00 0.23 0.00 89 1021.5
20260507065645 -6 251 0.0 0.0 0.00 0.23 0.00 88 1021.5
20260507065139 -6 251 0.0 0.0 0.00 0.23 0.00 88 1021.5
20260507064634 -6 251 0.0 0.0 0.00 0.23 0.00 89 1021.5
20260507064126 -6 251 0.0 0.0 0.00 0.23 0.00 89 1021.5
20260507063622 -6 251 0.0 0.0 0.00 0.23 0.00 89 1021.5
20260507063114 -6 251 0.0 0.0 0.00 0.23 0.00 89 1021.5
20260507062608 -6 251 0.0 0.0 0.00 0.23 0.00 89 1021.5
20260507062100 -6 251 0.0 0.0 0.00 0.23 0.00 89 1021.4
20260507061556 -6 251 0.0 0.0 0.00 0.23 0.00 89 1021.4
20260507061048 -6 251 0.0 0.0 0.00 0.23 0.00 89 1021.5
20260507060543 -6 251 0.0 0.0 0.00 0.23 0.00 89 1021.2
20260507060037 -6 251 0.0 0.0 0.00 0.23 0.00 88 1021.2
20260507055538 -6 251 0.0 0.0 0.00 0.23 0.23 88 1021.2
20260507055031 -6 251 0.0 0.0 0.00 0.23 0.23 88 1021.1
20260507054519 -6 251 0.0 0.0 0.00 0.23 0.23 88 1021.1
20260507054250 -6 251 0.0 0.0 0.00 0.23 0.23 87 1021.1
20260507053507 -6 251 0.0 0.0 0.00 0.23 0.23 87 1021.1
20260507053001 -6 251 0.0 0.0 0.00 0.23 0.23 87 1021.1
20260507052726 -6 251 0.0 0.0 0.00 0.23 0.23 87 1020.8
20260507051952 -6 251 0.0 0.0 0.00 0.23 0.23 87 1020.8
20260507051444 -6 251 0.0 0.0 0.00 0.23 0.23 87 1020.8
20260507050937 -5 251 0.0 0.0 0.00 0.23 0.23 87 1020.7
20260507050432 -5 251 0.0 0.0 0.00 0.23 0.23 87 1020.7
20260507045925 -5 251 0.0 0.0 0.00 0.23 0.23 87 1020.6
20260507045419 -5 251 0.0 0.0 0.00 0.23 0.23 86 1020.7
20260507045144 -5 251 0.0 0.0 0.00 0.23 0.23 86 1020.6
20260507044408 -5 251 0.0 0.0 0.00 0.23 0.23 86 1020.7
20260507043904 -5 251 0.0 0.0 0.00 0.23 0.23 86 1020.7
20260507043628 -5 251 0.0 0.0 0.00 0.23 0.23 86 1020.6
20260507042850 -5 251 0.0 0.0 0.00 0.23 0.23 86 1020.6
20260507042614 -5 251 0.0 0.0 0.00 0.23 0.23 86 1020.6
20260507041837 -4 251 0.0 0.0 0.00 0.23 0.23 86 1020.6
20260507041332 -4 251 0.0 0.0 0.00 0.23 0.23 86 1020.6
20260507040826 -4 251 0.0 0.0 0.00 0.23 0.23 86 1020.5
20260507040322 -4 251 0.0 0.0 0.00 0.23 0.23 86 1020.6
20260507035822 -4 251 0.0 0.0 0.00 0.23 0.23 86 1020.6
20260507035321 -4 251 0.0 0.0 0.00 0.23 0.23 86 1020.6
20260507034818 -3 251 0.0 0.0 0.00 0.23 0.23 86 1020.5
20260507034319 -3 251 0.0 0.0 0.00 0.23 0.23 86 1020.5
20260507033819 -3 251 0.0 0.0 0.00 0.23 0.23 86 1020.5